EA3BNF-1 Weather Reports


Display with metric or nautical units.
time (UTC)temp
F
wind
direction
speed
MPH
gust
MPH
rain 1hr
in
rain 24hr
in
rain mn
in
humidity
%
barometer
mb
20260506090708 65 0.0 0.0 0.00 0.00 0.00 55 1012.9
20260506085613 64 0.0 0.0 0.00 0.00 0.00 56 1012.9
20260506084517 64 0.0 0.0 0.00 0.00 0.00 56 1012.8
20260506083421 64 0.0 0.0 0.00 0.00 0.00 55 1012.7
20260506082326 63 0.0 0.0 0.00 0.00 0.00 53 1012.5
20260506081230 63 0.0 0.0 0.00 0.00 0.00 54 1012.5
20260506080134 63 0.0 0.0 0.00 0.00 0.00 54 1012.4
20260506072847 61 0.0 0.0 0.00 0.00 0.00 58 1012.4
20260506071752 60 0.0 0.0 0.00 0.00 0.00 57 1012.3
20260506070656 60 0.0 0.0 0.00 0.00 0.00 58 1012.3
20260506062313 58 0.0 0.0 0.00 0.00 0.00 59 1012.2
20260506061218 58 0.0 0.0 0.00 0.00 0.00 59 1012.1
20260506060122 57 0.0 0.0 0.00 0.00 0.00 60 1012.0
20260506050644 57 0.0 0.0 0.00 0.00 0.00 61 1011.8
20260506044453 58 0.0 0.0 0.00 0.00 0.00 61 1011.7
20260506043357 58 0.0 0.0 0.00 0.00 0.00 60 1011.7
20260506042304 58 0.0 0.0 0.00 0.00 0.00 60 1011.7
20260506041206 58 0.0 0.0 0.00 0.00 0.00 59 1011.7
20260506040104 58 0.0 0.0 0.00 0.00 0.00 59 1011.7
20260506035009 58 0.0 0.0 0.00 0.00 0.00 60 1011.6
20260506033913 58 0.0 0.0 0.00 0.00 0.00 60 1011.5
20260506032817 58 0.0 0.0 0.00 0.00 0.00 60 1011.7
20260506031722 58 0.0 0.0 0.00 0.00 0.00 60 1011.6
20260506030626 58 0.0 0.0 0.00 0.00 0.00 60 1011.4
20260506025530 58 0.0 0.0 0.00 0.00 0.00 61 1011.3
20260506024435 58 0.0 0.0 0.00 0.00 0.00 61 1011.3
20260506023339 58 0.0 0.0 0.00 0.00 0.00 61 1011.2
20260506022244 58 0.0 0.0 0.00 0.00 0.00 61 1011.2
20260506021148 59 0.0 0.0 0.00 0.00 0.00 62 1011.1
20260506020052 59 0.0 0.0 0.00 0.00 0.00 62 1011.0
20260506014957 59 0.0 0.0 0.00 0.00 0.00 61 1011.0
20260506013901 59 0.0 0.0 0.00 0.00 0.00 61 1011.0
20260506012646 60 0.0 0.0 0.00 0.00 0.00 60 1010.9
20260506011551 60 0.0 0.0 0.00 0.00 0.00 61 1010.9
20260506010455 60 0.0 0.0 0.00 0.00 0.00 61 1011.1
20260506005359 60 0.0 0.0 0.00 0.00 0.00 60 1011.1
20260506004304 60 0.0 0.0 0.00 0.00 0.00 60 1011.2
20260506003208 61 0.0 0.0 0.00 0.00 0.00 58 1011.3
20260506002113 61 0.0 0.0 0.00 0.00 0.00 58 1011.5
20260506001017 61 0.0 0.0 0.00 0.00 0.00 57 1011.6
20260505235921 61 0.0 0.0 0.00 0.00 0.00 58 1011.6
20260505234825 61 0.0 0.0 0.00 0.00 0.00 58 1011.7
20260505233729 62 0.0 0.0 0.00 0.00 0.00 58 1011.7
20260505232634 62 0.0 0.0 0.00 0.00 0.00 58 1011.6
20260505231538 62 0.0 0.0 0.00 0.00 0.00 61 1011.5
20260505230443 62 0.0 0.0 0.00 0.00 0.00 62 1011.3
20260505225347 62 0.0 0.0 0.00 0.00 0.00 63 1011.2
20260505224251 62 0.0 0.0 0.00 0.00 0.00 64 1011.2
20260505223156 62 0.0 0.0 0.00 0.00 0.00 64 1011.3
20260505222100 62 0.0 0.0 0.00 0.00 0.00 65 1011.5
20260505221004 63 0.0 0.0 0.00 0.00 0.00 66 1011.6
20260505215909 62 0.0 0.0 0.00 0.00 0.00 67 1011.7
20260505214813 62 0.0 0.0 0.00 0.00 0.00 69 1012.0
20260505213718 62 0.0 0.0 0.00 0.00 0.00 70 1012.3
20260505212622 63 0.0 0.0 0.00 0.00 0.00 70 1012.3
20260505211527 63 0.0 0.0 0.00 0.00 0.00 68 1012.4
20260505210431 63 0.0 0.0 0.00 0.00 0.00 68 1012.2
20260505205335 64 0.0 0.0 0.00 0.00 0.00 67 1012.0
20260505204239 64 0.0 0.0 0.00 0.00 0.00 66 1011.8
20260505203144 65 0.0 0.0 0.00 0.00 0.00 65 1011.6
20260505202048 65 0.0 0.0 0.00 0.00 0.00 65 1011.4
20260505200954 66 0.0 0.0 0.00 0.00 0.00 63 1011.4
20260505195857 66 0.0 0.0 0.00 0.00 0.00 63 1011.2
20260505194758 66 0.0 0.0 0.00 0.00 0.00 63 1010.9
20260505193702 66 0.0 0.0 0.00 0.00 0.00 62 1010.6
20260505192606 66 0.0 0.0 0.00 0.00 0.00 61 1010.4
20260505191511 66 0.0 0.0 0.00 0.00 0.00 61 1010.6
20260505190415 66 0.0 0.0 0.00 0.00 0.00 61 1010.5
20260505185319 66 0.0 0.0 0.00 0.00 0.00 60 1010.6
20260505184224 65 0.0 0.0 0.00 0.00 0.00 61 1010.6
20260505183128 65 0.0 0.0 0.00 0.00 0.00 62 1010.6
20260505182033 65 0.0 0.0 0.00 0.00 0.00 62 1010.6
20260505180937 65 0.0 0.0 0.00 0.00 0.00 62 1010.4
20260505175841 66 0.0 0.0 0.00 0.00 0.00 62 1010.6
20260505174746 66 0.0 0.0 0.00 0.00 0.00 62 1010.6
20260505173650 67 0.0 0.0 0.00 0.00 0.00 61 1010.5
20260505172554 67 0.0 0.0 0.00 0.00 0.00 59 1010.4
20260505171459 66 0.0 0.0 0.00 0.00 0.00 60 1010.3
20260505170403 66 0.0 0.0 0.00 0.00 0.00 60 1010.2
20260505165307 67 0.0 0.0 0.00 0.00 0.00 62 1010.4
20260505164212 69 0.0 0.0 0.00 0.00 0.00 61 1010.6
20260505163116 71 0.0 0.0 0.00 0.00 0.00 58 1010.5
20260505162020 72 0.0 0.0 0.00 0.00 0.00 56 1010.3
20260505160924 72 0.0 0.0 0.00 0.00 0.00 57 1010.2
20260505152541 73 0.0 0.0 0.00 0.00 0.00 58 1010.2
20260505151445 73 0.0 0.0 0.00 0.00 0.00 58 1010.1
20260505150350 73 0.0 0.0 0.00 0.00 0.00 58 1010.1
20260505124145 71 0.0 0.0 0.00 0.00 0.00 57 1010.7
20260505123049 71 0.0 0.0 0.00 0.00 0.00 59 1010.7
20260505121953 71 0.0 0.0 0.00 0.00 0.00 58 1010.9
20260505120858 71 0.0 0.0 0.00 0.00 0.00 56 1010.9
20260505115802 71 0.0 0.0 0.00 0.00 0.00 57 1011.0
20260505114707 71 0.0 0.0 0.00 0.00 0.00 58 1011.2
20260505113611 71 0.0 0.0 0.00 0.00 0.00 57 1011.4
20260505112515 71 0.0 0.0 0.00 0.00 0.00 59 1011.4
20260505111420 71 0.0 0.0 0.00 0.00 0.00 58 1011.5
20260505110324 71 0.0 0.0 0.00 0.00 0.00 58 1011.6
20260505101530 69 0.0 0.0 0.00 0.00 0.00 60 1011.8
20260505100434 70 0.0 0.0 0.00 0.00 0.00 60 1011.7
20260505095339 70 0.0 0.0 0.00 0.00 0.00 59 1011.7
20260505094243 70 0.0 0.0 0.00 0.00 0.00 62 1011.7
20260505093148 69 0.0 0.0 0.00 0.00 0.00 60 1011.8
20260505092052 69 0.0 0.0 0.00 0.00 0.00 60 1011.7